Dexter, NY

8:53 AM EST on December 09, 2016 (GMT -0500)
Watertown International

Weather History for KART - April, 2014

Change the Weather History Date:

Thursday, April 10, 2014

  Actual Average Record
Temperature  
Mean Temperature 51 °F 42 °F  
Max Temperature 68 °F 52 °F 72 °F (1952)
Min Temperature 34 °F 31 °F 12 °F (2016)
Degree Days  
Heating Degree Days 14 23  
Month to date heating degree days 255 254  
Since 1 July heating degree days 7231 6761  
Cooling Degree Days 0 0  
Month to date cooling degree days 0 0  
Year to date cooling degree days 0 0  
Growing Degree Days 1 (Base 50)    
Moisture  
Dew Point 29 °F    
Average Humidity 54    
Maximum Humidity 83    
Minimum Humidity 24    
Precipitation  
Precipitation 0.16 in 0.10 in 1.68 in (1961)
Month to date precipitation 1.75 0.95  
Year to date precipitation 10.96 8.13  
Sea Level Pressure  
Sea Level Pressure 29.85 in    
Wind  
Wind Speed 13 mph (SSW)    
Max Wind Speed 31 mph    
Max Gust Speed 40 mph    
Visibility 10 miles    
Events Rain    
T = Trace of Precipitation, MM = Missing Value Source: NWS Daily Summary

Daily Weather History Graph

Daily Weather History Graph

Search for Another Location

Airport or City:

Trip Planner

Search our weather history database for the weather conditions in past years. The results will help you decide how hot, cold, wet, or windy it might be!

Date:

Astronomy

Apr. 10, 2014 Rise Set
Actual Time 6:29 AM EDT 7:42 PM EDT
Civil Twilight 5:59 AM EDT 8:11 PM EDT
Nautical Twilight 5:24 AM EDT 8:47 PM EDT
Astronomical Twilight 4:46 AM EDT 9:25 PM EDT
Moon 3:15 PM EDT (4/10) 4:00 AM EDT (4/10)
Length of Visible Light 14h 11m
Length of Day
13h 12m
Waxing Gibbous, 79% of the Moon is Illuminated
Apr 10
Waxing Gibbous
Apr 15
Full
Apr 22
Last Quarter
Apr 29
New
May 6
First Quarter

Hourly Weather History & Observations

Time (EDT) Temp. Windchill Dew Point Humidity Pressure Visibility Wind Dir Wind Speed Gust Speed Precip Events Conditions
12:56 AM 34.0 °F 29.8 °F 21.9 °F 61% 29.99 in 10.0 mi South 4.6 mph - N/A   Clear
1:56 AM 34.0 °F 31.0 °F 23.0 °F 64% 29.98 in 10.0 mi South 3.5 mph - N/A   Clear
2:56 AM 35.1 °F 30.1 °F 21.9 °F 59% 29.98 in 10.0 mi SSW 5.8 mph - N/A   Clear
3:56 AM 37.0 °F 33.3 °F 23.0 °F 57% 29.97 in 10.0 mi Variable 4.6 mph - N/A   Clear
4:56 AM 36.0 °F 32.1 °F 23.0 °F 59% 29.97 in 10.0 mi South 4.6 mph - N/A   Clear
5:56 AM 37.0 °F 32.4 °F 21.9 °F 54% 29.98 in 10.0 mi South 5.8 mph - N/A   Clear
6:56 AM 39.0 °F 34.0 °F 21.9 °F 50% 29.98 in 10.0 mi South 6.9 mph - N/A   Clear
7:56 AM 42.8 °F 36.6 °F 21.2 °F 42% 29.95 in 10.0 mi South 11.5 mph - N/A   Clear
8:56 AM 46.9 °F - 23.0 °F 39% 29.94 in 10.0 mi South 13.8 mph 21.9 mph N/A   Clear
9:56 AM 51.1 °F - 27.0 °F 39% 29.93 in 10.0 mi South 16.1 mph 25.3 mph N/A   Scattered Clouds
10:56 AM 55.0 °F - 30.0 °F 38% 29.91 in 10.0 mi South 13.8 mph 25.3 mph N/A   Overcast
11:56 AM 57.9 °F - 32.0 °F 37% 29.88 in 10.0 mi SSW 19.6 mph 25.3 mph N/A   Partly Cloudy
12:56 PM 60.1 °F - 32.0 °F 35% 29.84 in 10.0 mi SSW 23.0 mph 33.4 mph N/A   Mostly Cloudy
1:56 PM 62.1 °F - 30.9 °F 31% 29.80 in 10.0 mi SSW 19.6 mph 32.2 mph N/A   Mostly Cloudy
2:56 PM 64.0 °F - 33.1 °F 31% 29.76 in 10.0 mi South 18.4 mph 28.8 mph N/A   Scattered Clouds
3:56 PM 66.0 °F - 32.0 °F 28% 29.71 in 10.0 mi South 17.3 mph 28.8 mph N/A   Scattered Clouds
4:56 PM 68.0 °F - 32.0 °F 26% 29.68 in 10.0 mi South 21.9 mph 39.1 mph N/A   Clear
5:56 PM 68.0 °F - 30.9 °F 25% 29.65 in 10.0 mi South 20.7 mph 36.8 mph N/A   Clear
6:56 PM 66.0 °F - 30.9 °F 27% 29.64 in 10.0 mi SSW 16.1 mph 29.9 mph N/A   Scattered Clouds
7:56 PM 64.9 °F - 33.1 °F 31% 29.70 in 10.0 mi SW 16.1 mph 27.6 mph N/A   Overcast
8:56 PM 57.0 °F - 39.0 °F 51% 29.75 in 10.0 mi WSW 10.4 mph 27.6 mph 0.00 in Rain Light Rain
9:56 PM 59.0 °F - 37.0 °F 44% 29.73 in 10.0 mi SW 5.8 mph - 0.00 in Rain Light Rain
10:56 PM 50.0 °F - 39.9 °F 68% 29.81 in 8.0 mi WSW 16.1 mph 26.5 mph 0.02 in Rain Light Rain
11:56 PM 45.0 °F 39.7 °F 39.9 °F 82% 29.82 in 4.0 mi SW 10.4 mph - 0.06 in Rain Rain